| time (UTC) | temp F | wind direction | speed MPH | gust MPH | rain 1hr in | rain 24hr in | rain mn in | humidity % | barometer mb |
| 20260507185523 | 76 | 203 | 2.0 | 4.0 | 0.31 | 5.66 | 0.00 | 85 | 1011.5 |
| 20260507185023 | 76 | 237 | 1.0 | 2.0 | 0.29 | 5.62 | 0.00 | 85 | 1011.4 |
| 20260507184523 | 76 | 33 | 0.0 | 1.0 | 0.28 | 5.58 | 0.00 | 85 | 1011.4 |
| 20260507184023 | 76 | 19 | 0.0 | 1.0 | 0.28 | 5.57 | 0.00 | 84 | 1011.5 |
| 20260507183523 | 76 | 46 | 0.0 | 1.0 | 0.29 | 5.56 | 0.00 | 84 | 1011.5 |
| 20260507183023 | 76 | 24 | 0.0 | 1.0 | 0.27 | 5.52 | 0.00 | 84 | 1011.6 |
| 20260507182523 | 76 | 268 | 0.0 | 1.0 | 0.28 | 5.50 | 0.00 | 85 | 1011.7 |
| 20260507182022 | 76 | 245 | 1.0 | 1.0 | 0.29 | 5.49 | 0.00 | 85 | 1011.8 |
| 20260507181523 | 76 | 225 | 1.0 | 2.0 | 0.28 | 5.46 | 0.00 | 85 | 1011.8 |
| 20260507181023 | 76 | 177 | 1.0 | 2.0 | 0.30 | 5.45 | 0.00 | 85 | 1011.8 |
| 20260507180523 | 76 | 166 | 1.0 | 2.0 | 0.28 | 5.42 | 0.00 | 85 | 1011.8 |
| 20260507180023 | 76 | 159 | 2.0 | 3.0 | 0.27 | 5.37 | 0.00 | 85 | 1011.9 |
| 20260507175522 | 76 | 219 | 2.0 | 4.0 | 0.27 | 5.36 | 0.00 | 84 | 1011.9 |
| 20260507175023 | 77 | 174 | 2.0 | 3.0 | 0.24 | 5.33 | 0.00 | 84 | 1012.0 |
| 20260507174522 | 77 | 243 | 1.0 | 4.0 | 0.23 | 5.31 | 0.00 | 84 | 1012.0 |
| 20260507174023 | 77 | 247 | 1.0 | 3.0 | 0.22 | 5.30 | 0.00 | 84 | 1012.0 |
| 20260507173523 | 77 | 215 | 1.0 | 1.0 | 0.22 | 5.27 | 0.00 | 84 | 1012.0 |
| 20260507173022 | 77 | 56 | 0.0 | 1.0 | 0.21 | 5.26 | 0.00 | 84 | 1012.1 |
| 20260507172523 | 77 | 62 | 1.0 | 2.0 | 0.22 | 5.23 | 0.00 | 84 | 1012.1 |
| 20260507172022 | 77 | 58 | 1.0 | 1.0 | 0.25 | 5.20 | 0.00 | 84 | 1012.1 |
| 20260507172004 | 77 | 54 | 0.0 | 1.0 | 0.24 | 5.18 | 0.00 | 84 | 1012.1 |
| 20260507171522 | 77 | 50 | 0.0 | 2.0 | 0.24 | 5.18 | 0.00 | 84 | 1012.1 |
| 20260507171454 | 77 | 37 | 0.0 | 2.0 | 0.28 | 5.18 | 0.00 | 84 | 1012.1 |
| 20260507171022 | 77 | 49 | 1.0 | 3.0 | 0.28 | 5.14 | 0.00 | 84 | 1012.1 |
| 20260507170943 | 77 | 27 | 1.0 | 3.0 | 0.28 | 5.14 | 0.00 | 84 | 1012.1 |
| 20260507170434 | 77 | 19 | 0.0 | 2.0 | 0.30 | 5.12 | 0.00 | 84 | 1012.2 |
| 20260507170022 | 77 | 65 | 1.0 | 4.0 | 0.29 | 5.10 | 0.00 | 84 | 1012.1 |
| 20260507165923 | 77 | 41 | 1.0 | 4.0 | 0.31 | 5.10 | 0.00 | 84 | 1012.1 |
| 20260507165522 | 77 | 42 | 0.0 | 3.0 | 0.34 | 5.09 | 0.00 | 84 | 1012.3 |
| 20260507165414 | 77 | 48 | 0.0 | 3.0 | 0.34 | 5.09 | 0.00 | 84 | 1012.2 |
| 20260507165022 | 77 | 46 | 1.0 | 2.0 | 0.36 | 5.09 | 0.00 | 83 | 1012.3 |
| 20260507164903 | 77 | 9 | 1.0 | 2.0 | 0.37 | 5.09 | 0.00 | 83 | 1012.2 |
| 20260507164522 | 77 | 69 | 1.0 | 2.0 | 0.36 | 5.07 | 0.00 | 83 | 1012.3 |
| 20260507164355 | 77 | 17 | 0.0 | 2.0 | 0.38 | 5.07 | 0.00 | 83 | 1012.2 |
| 20260507164022 | 77 | 29 | 1.0 | 4.0 | 0.40 | 5.07 | 0.00 | 83 | 1012.3 |
| 20260507163843 | 77 | 63 | 2.0 | 4.0 | 0.42 | 5.07 | 0.00 | 83 | 1012.3 |
| 20260507163522 | 77 | 43 | 2.0 | 4.0 | 0.40 | 5.05 | 0.00 | 83 | 1012.3 |
| 20260507163333 | 77 | 38 | 1.0 | 3.0 | 0.42 | 5.05 | 0.00 | 83 | 1012.4 |
| 20260507163022 | 77 | 22 | 2.0 | 3.0 | 0.43 | 5.05 | 0.00 | 83 | 1012.3 |
| 20260507162522 | 77 | 54 | 1.0 | 3.0 | 0.42 | 5.00 | 0.00 | 83 | 1012.5 |
| 20260507162313 | 77 | 53 | 2.0 | 3.0 | 0.41 | 4.98 | 0.00 | 83 | 1012.4 |
| 20260507162022 | 77 | 56 | 0.0 | 2.0 | 0.40 | 4.94 | 0.00 | 83 | 1012.5 |
| 20260507161521 | 77 | 46 | 1.0 | 3.0 | 0.40 | 4.93 | 0.00 | 83 | 1012.5 |
| 20260507161253 | 77 | 49 | 1.0 | 3.0 | 0.40 | 4.90 | 0.00 | 83 | 1012.5 |
| 20260507161022 | 77 | 46 | 1.0 | 2.0 | 0.37 | 4.86 | 0.00 | 83 | 1012.5 |
| 20260507160743 | 77 | 66 | 0.0 | 2.0 | 0.35 | 4.83 | 0.00 | 83 | 1012.5 |
| 20260507160522 | 77 | 25 | 0.0 | 4.0 | 0.36 | 4.83 | 0.00 | 83 | 1012.5 |
| 20260507160233 | 77 | 40 | 2.0 | 5.0 | 0.36 | 4.81 | 0.00 | 83 | 1012.5 |
| 20260507160022 | 77 | 17 | 2.0 | 5.0 | 0.37 | 4.80 | 0.00 | 83 | 1012.6 |
| 20260507155723 | 77 | 22 | 2.0 | 4.0 | 0.38 | 4.77 | 0.00 | 83 | 1012.5 |
| 20260507155522 | 77 | 88 | 0.0 | 6.0 | 0.36 | 4.74 | 0.00 | 83 | 1012.5 |
| 20260507155213 | 77 | 343 | 3.0 | 6.0 | 0.42 | 4.73 | 0.00 | 82 | 1012.5 |
| 20260507155022 | 77 | 56 | 0.0 | 5.0 | 0.41 | 4.72 | 0.00 | 82 | 1012.5 |
| 20260507154703 | 77 | 242 | 2.0 | 4.0 | 0.43 | 4.71 | 0.00 | 82 | 1012.5 |
| 20260507154521 | 77 | 322 | 0.0 | 3.0 | 0.43 | 4.71 | 0.00 | 82 | 1012.5 |
| 20260507154153 | 77 | 45 | 0.0 | 1.0 | 0.41 | 4.68 | 0.00 | 82 | 1012.5 |
| 20260507154022 | 77 | 26 | 0.0 | 6.0 | 0.40 | 4.67 | 0.00 | 82 | 1012.5 |
| 20260507153643 | 77 | 39 | 3.0 | 6.0 | 0.38 | 4.65 | 0.00 | 82 | 1012.5 |
| 20260507153521 | 77 | 3 | 3.0 | 5.0 | 0.40 | 4.65 | 0.00 | 82 | 1012.5 |
| 20260507153133 | 77 | 44 | 1.0 | 3.0 | 0.41 | 4.62 | 0.00 | 82 | 1012.6 |
| 20260507153023 | 77 | 65 | 1.0 | 3.0 | 0.40 | 4.61 | 0.00 | 82 | 1012.6 |
| 20260507152521 | 77 | 31 | 1.0 | 4.0 | 0.38 | 4.58 | 0.00 | 82 | 1012.6 |
| 20260507152113 | 77 | 284 | 1.0 | 4.0 | 0.38 | 4.54 | 0.00 | 82 | 1012.7 |
| 20260507152022 | 77 | 351 | 1.0 | 4.0 | 0.38 | 4.54 | 0.00 | 82 | 1012.7 |
| 20260507151602 | 77 | 30 | 2.0 | 4.0 | 0.42 | 4.53 | 0.00 | 82 | 1012.8 |
| 20260507151521 | 77 | 27 | 2.0 | 4.0 | 0.42 | 4.53 | 0.00 | 82 | 1012.8 |
| 20260507151053 | 77 | 43 | 1.0 | 4.0 | 0.38 | 4.48 | 0.00 | 82 | 1012.8 |
| 20260507151021 | 77 | 62 | 1.0 | 4.0 | 0.38 | 4.48 | 0.00 | 82 | 1012.8 |
| 20260507150542 | 77 | 59 | 1.0 | 3.0 | 0.43 | 4.46 | 0.00 | 82 | 1012.9 |
| 20260507150521 | 77 | 61 | 1.0 | 3.0 | 0.43 | 4.46 | 0.00 | 82 | 1012.9 |
| 20260507150033 | 77 | 337 | 0.0 | 2.0 | 0.49 | 4.42 | 0.00 | 82 | 1012.8 |
| 20260507150021 | 77 | 350 | 0.0 | 2.0 | 0.49 | 4.42 | 0.00 | 82 | 1012.8 |
| 20260507145523 | 77 | 27 | 0.0 | 4.0 | 0.47 | 4.38 | 0.00 | 82 | 1012.8 |
| 20260507145521 | 77 | 25 | 0.0 | 4.0 | 0.47 | 4.38 | 0.00 | 82 | 1012.8 |
| 20260507145022 | 77 | 294 | 0.0 | 3.0 | 0.47 | 4.31 | 0.00 | 82 | 1012.8 |
| 20260507145012 | 77 | 303 | 0.0 | 3.0 | 0.46 | 4.28 | 0.00 | 82 | 1012.8 |
| 20260507144521 | 77 | 65 | 1.0 | 4.0 | 0.49 | 4.27 | 0.00 | 83 | 1012.8 |
| 20260507144021 | 77 | 25 | 2.0 | 7.0 | 0.55 | 4.27 | 0.00 | 83 | 1012.8 |
| 20260507143521 | 77 | 56 | 5.0 | 8.0 | 0.56 | 4.25 | 0.00 | 83 | 1012.9 |
| 20260507143021 | 77 | 10 | 1.0 | 9.0 | 0.59 | 4.21 | 0.00 | 83 | 1012.7 |
| 20260507142522 | 77 | 331 | 2.0 | 6.0 | 0.60 | 4.19 | 0.00 | 83 | 1012.8 |
| 20260507142021 | 77 | 21 | 0.0 | 4.0 | 0.63 | 4.14 | 0.00 | 83 | 1012.7 |
| 20260507141521 | 77 | 52 | 1.0 | 10.0 | 0.62 | 4.11 | 0.00 | 82 | 1012.6 |
| 20260507141020 | 77 | 44 | 6.0 | 8.0 | 0.60 | 4.07 | 0.00 | 82 | 1012.6 |
| 20260507140521 | 77 | 298 | 1.0 | 4.0 | 0.56 | 4.00 | 0.00 | 83 | 1012.6 |
| 20260507140021 | 77 | 319 | 0.0 | 6.0 | 0.53 | 3.93 | 0.00 | 83 | 1012.6 |
| 20260507135521 | 77 | 357 | 2.0 | 9.0 | 0.55 | 3.89 | 0.00 | 82 | 1012.5 |
| 20260507135021 | 77 | 85 | 2.0 | 11.0 | 0.49 | 3.82 | 0.00 | 83 | 1012.5 |
| 20260507134520 | 77 | 75 | 4.0 | 12.0 | 0.46 | 3.75 | 0.00 | 83 | 1012.5 |
| 20260507134021 | 77 | 357 | 2.0 | 5.0 | 0.44 | 3.70 | 0.00 | 83 | 1012.3 |
| 20260507133520 | 77 | 350 | 1.0 | 6.0 | 0.47 | 3.68 | 0.00 | 83 | 1012.3 |
| 20260507133021 | 77 | 18 | 3.0 | 6.0 | 0.43 | 3.62 | 0.00 | 83 | 1012.2 |
| 20260507132520 | 77 | 146 | 2.0 | 5.0 | 0.46 | 3.59 | 0.00 | 83 | 1012.1 |
| 20260507131520 | 77 | 11 | 0.0 | 2.0 | 0.44 | 3.48 | 0.00 | 83 | 1012.1 |
| 20260507131202 | 77 | 307 | 0.0 | 2.0 | 0.44 | 3.47 | 0.00 | 83 | 1011.9 |
| 20260507131021 | 77 | 352 | 1.0 | 2.0 | 0.48 | 3.47 | 0.00 | 83 | 1012.0 |
| 20260507130651 | 77 | 276 | 0.0 | 4.0 | 0.49 | 3.44 | 0.00 | 83 | 1012.0 |
| 20260507130520 | 77 | 240 | 2.0 | 4.0 | 0.48 | 3.43 | 0.00 | 83 | 1012.0 |
| 20260507130142 | 77 | 230 | 1.0 | 7.0 | 0.44 | 3.40 | 0.00 | 83 | 1012.0 |
| 20260507130020 | 77 | 4 | 1.0 | 7.0 | 0.44 | 3.40 | 0.00 | 83 | 1012.0 |
| 20260507125631 | 77 | 66 | 1.0 | 4.0 | 0.43 | 3.36 | 0.00 | 83 | 1011.9 |
| 20260507125520 | 77 | 141 | 2.0 | 4.0 | 0.43 | 3.34 | 0.00 | 83 | 1011.9 |
| 20260507125122 | 77 | 288 | 1.0 | 3.0 | 0.46 | 3.33 | 0.00 | 83 | 1011.8 |
| 20260507125020 | 77 | 206 | 1.0 | 3.0 | 0.46 | 3.33 | 0.00 | 83 | 1011.8 |
| 20260507124611 | 77 | 321 | 1.0 | 4.0 | 0.47 | 3.30 | 0.00 | 83 | 1011.7 |
| 20260507124520 | 77 | 58 | 2.0 | 6.0 | 0.46 | 3.29 | 0.00 | 83 | 1011.7 |
| 20260507124102 | 77 | 29 | 3.0 | 10.0 | 0.47 | 3.28 | 0.00 | 82 | 1011.6 |
| 20260507124020 | 77 | 20 | 4.0 | 10.0 | 0.44 | 3.25 | 0.00 | 82 | 1011.6 |
| 20260507123552 | 77 | 16 | 1.0 | 4.0 | 0.43 | 3.21 | 0.00 | 82 | 1011.6 |
| 20260507123520 | 77 | 28 | 1.0 | 4.0 | 0.43 | 3.21 | 0.00 | 82 | 1011.5 |
| 20260507123041 | 77 | 283 | 0.0 | 5.0 | 0.43 | 3.20 | 0.00 | 82 | 1011.5 |
| 20260507123020 | 77 | 255 | 0.0 | 5.0 | 0.44 | 3.20 | 0.00 | 82 | 1011.6 |
| 20260507122520 | 77 | 227 | 2.0 | 6.0 | 0.43 | 3.14 | 0.00 | 82 | 1011.4 |
| 20260507122022 | 77 | 334 | 1.0 | 6.0 | 0.41 | 3.10 | 0.00 | 82 | 1011.3 |
| 20260507122020 | 77 | 336 | 1.0 | 6.0 | 0.41 | 3.10 | 0.00 | 82 | 1011.3 |
| 20260507121521 | 77 | 249 | 2.0 | 8.0 | 0.38 | 3.04 | 0.00 | 82 | 1011.4 |
| 20260507121511 | 77 | 196 | 2.0 | 8.0 | 0.38 | 3.04 | 0.00 | 82 | 1011.3 |
| 20260507121020 | 77 | 262 | 1.0 | 9.0 | 0.36 | 2.99 | 0.00 | 82 | 1011.4 |
| 20260507121001 | 77 | 267 | 1.0 | 9.0 | 0.36 | 2.99 | 0.00 | 82 | 1011.4 |
| 20260507120520 | 77 | 277 | 3.0 | 8.0 | 0.37 | 2.96 | 0.00 | 82 | 1011.3 |
| 20260507120452 | 77 | 153 | 4.0 | 8.0 | 0.37 | 2.96 | 0.00 | 82 | 1011.3 |
| 20260507120020 | 77 | 235 | 4.0 | 6.0 | 0.38 | 2.96 | 0.00 | 81 | 1011.2 |
| 20260507115941 | 77 | 215 | 2.0 | 5.0 | 0.38 | 2.96 | 0.00 | 81 | 1011.2 |
| 20260507115520 | 77 | 289 | 1.0 | 7.0 | 0.36 | 2.91 | 0.00 | 81 | 1011.2 |
| 20260507115431 | 77 | 259 | 1.0 | 7.0 | 0.37 | 2.91 | 0.00 | 81 | 1011.2 |
| 20260507115020 | 77 | 224 | 3.0 | 8.0 | 0.36 | 2.88 | 0.00 | 81 | 1011.1 |
| 20260507114921 | 77 | 249 | 3.0 | 8.0 | 0.37 | 2.88 | 0.00 | 81 | 1011.1 |
| 20260507114520 | 77 | 238 | 3.0 | 6.0 | 0.35 | 2.84 | 0.00 | 81 | 1011.0 |
| 20260507114411 | 78 | 279 | 1.0 | 6.0 | 0.35 | 2.84 | 0.00 | 81 | 1011.0 |
| 20260507114019 | 78 | 232 | 2.0 | 7.0 | 0.34 | 2.82 | 0.00 | 81 | 1010.9 |
| 20260507113901 | 78 | 297 | 2.0 | 7.0 | 0.30 | 2.78 | 0.00 | 81 | 1010.9 |
| 20260507113520 | 78 | 295 | 1.0 | 3.0 | 0.33 | 2.78 | 0.00 | 81 | 1011.0 |
| 20260507113351 | 77 | 272 | 2.0 | 3.0 | 0.33 | 2.78 | 0.00 | 81 | 1011.0 |
| 20260507113019 | 77 | 324 | 0.0 | 8.0 | 0.31 | 2.75 | 0.00 | 81 | 1011.0 |
| 20260507112841 | 78 | 29 | 2.0 | 8.0 | 0.30 | 2.72 | 0.00 | 81 | 1011.0 |
| 20260507112520 | 78 | 215 | 5.0 | 7.0 | 0.28 | 2.70 | 0.00 | 81 | 1010.9 |
| 20260507112330 | 78 | 307 | 1.0 | 7.0 | 0.28 | 2.69 | 0.00 | 81 | 1010.9 |
| 20260507112019 | 78 | 346 | 2.0 | 7.0 | 0.28 | 2.69 | 0.00 | 81 | 1010.8 |
| 20260507111821 | 78 | 147 | 0.0 | 10.0 | 0.27 | 2.66 | 0.00 | 80 | 1010.8 |
| 20260507111520 | 78 | 248 | 4.0 | 10.0 | 0.25 | 2.65 | 0.00 | 80 | 1010.8 |
| 20260507111310 | 78 | 206 | 5.0 | 8.0 | 0.24 | 2.64 | 0.00 | 80 | 1010.9 |
| 20260507111019 | 78 | 247 | 4.0 | 7.0 | 0.23 | 2.63 | 0.00 | 80 | 1010.9 |
| 20260507110824 | 78 | 282 | 2.0 | 8.0 | 0.21 | 2.61 | 0.00 | 80 | 1010.9 |
| 20260507110520 | 78 | 238 | 3.0 | 8.0 | 0.18 | 2.58 | 0.00 | 80 | 1010.8 |
| 20260507110250 | 78 | 34 | 2.0 | 5.0 | 0.18 | 2.58 | 0.00 | 80 | 1010.9 |
| 20260507110019 | 78 | 187 | 1.0 | 3.0 | 0.17 | 2.57 | 0.00 | 80 | 1010.9 |
| 20260507105741 | 78 | 219 | 1.0 | 7.0 | 0.16 | 2.56 | 0.00 | 80 | 1010.8 |
| 20260507105519 | 78 | 276 | 3.0 | 7.0 | 0.15 | 2.55 | 0.00 | 80 | 1010.8 |
| 20260507105239 | 78 | 285 | 0.0 | 9.0 | 0.12 | 2.52 | 0.00 | 80 | 1010.8 |
| 20260507105020 | 78 | 336 | 3.0 | 11.0 | 0.11 | 2.51 | 0.00 | 80 | 1010.8 |
| 20260507104720 | 78 | 42 | 1.0 | 12.0 | 0.12 | 2.50 | 0.00 | 80 | 1010.8 |
| 20260507104519 | 78 | 59 | 5.0 | 12.0 | 0.11 | 2.49 | 0.00 | 80 | 1010.8 |
| 20260507104222 | 78 | 267 | 0.0 | 5.0 | 0.10 | 2.48 | 0.00 | 80 | 1010.7 |
| 20260507104020 | 78 | 132 | 1.0 | 5.0 | 0.10 | 2.48 | 0.00 | 80 | 1010.7 |
| 20260507103701 | 79 | 186 | 2.0 | 5.0 | 0.09 | 2.46 | 0.00 | 80 | 1010.7 |
| 20260507103519 | 79 | 19 | 0.0 | 6.0 | 0.08 | 2.45 | 0.00 | 80 | 1010.6 |
| 20260507103151 | 79 | 53 | 0.0 | 5.0 | 0.08 | 2.44 | 0.00 | 80 | 1010.6 |
| 20260507103020 | 79 | 23 | 0.0 | 5.0 | 0.07 | 2.43 | 0.00 | 79 | 1010.6 |
| 20260507102641 | 79 | 332 | 2.0 | 11.0 | 0.05 | 2.42 | 0.00 | 79 | 1010.5 |
| 20260507102519 | 79 | 355 | 6.0 | 12.0 | 0.05 | 2.42 | 0.00 | 79 | 1010.5 |
| 20260507102131 | 80 | 215 | 8.0 | 12.0 | 0.05 | 2.40 | 0.00 | 77 | 1010.4 |
| 20260507102019 | 80 | 185 | 5.0 | 12.0 | 0.05 | 2.40 | 0.00 | 77 | 1010.4 |
| 20260507101627 | 81 | 223 | 6.0 | 12.0 | 0.07 | 2.39 | 0.00 | 76 | 1010.4 |
| 20260507101519 | 81 | 243 | 6.0 | 10.0 | 0.07 | 2.39 | 0.00 | 76 | 1010.3 |
| 20260507101111 | 81 | 253 | 3.0 | 9.0 | 0.10 | 2.39 | 0.00 | 76 | 1010.4 |
| 20260507101019 | 81 | 266 | 0.0 | 9.0 | 0.11 | 2.39 | 0.00 | 76 | 1010.4 |
| 20260507100602 | 82 | 230 | 0.0 | 6.0 | 0.11 | 2.39 | 0.00 | 76 | 1010.4 |
| 20260507100519 | 82 | 272 | 2.0 | 6.0 | 0.11 | 2.39 | 0.00 | 76 | 1010.4 |
| 20260507100050 | 81 | 240 | 2.0 | 9.0 | 0.12 | 2.39 | 0.00 | 76 | 1010.4 |
| 20260507100019 | 81 | 279 | 3.0 | 9.0 | 0.12 | 2.39 | 0.00 | 76 | 1010.4 |
| 20260507095541 | 81 | 246 | 4.0 | 13.0 | 0.12 | 2.39 | 0.00 | 75 | 1010.3 |
| 20260507095030 | 82 | 222 | 6.0 | 9.0 | 0.14 | 2.39 | 0.00 | 75 | 1010.2 |
| 20260507095019 | 82 | 213 | 6.0 | 9.0 | 0.14 | 2.39 | 0.00 | 75 | 1010.2 |
| 20260507094522 | 81 | 317 | 6.0 | 14.0 | 0.12 | 2.37 | 0.00 | 75 | 1010.2 |
| 20260507094519 | 81 | 325 | 6.0 | 14.0 | 0.12 | 2.37 | 0.00 | 75 | 1010.2 |
| 20260507094019 | 83 | 257 | 6.0 | 11.0 | 0.14 | 2.37 | 0.00 | 74 | 1010.3 |
| 20260507094010 | 83 | 258 | 5.0 | 11.0 | 0.14 | 2.37 | 0.00 | 74 | 1010.3 |
| 20260507093519 | 83 | 220 | 4.0 | 13.0 | 0.15 | 2.37 | 0.00 | 74 | 1010.2 |
| 20260507093500 | 83 | 189 | 4.0 | 13.0 | 0.15 | 2.37 | 0.00 | 74 | 1010.2 |
| 20260507093018 | 83 | 254 | 4.0 | 10.0 | 0.17 | 2.36 | 0.00 | 74 | 1010.2 |
| 20260507092950 | 83 | 249 | 3.0 | 10.0 | 0.17 | 2.36 | 0.00 | 74 | 1010.2 |
| 20260507092519 | 83 | 230 | 3.0 | 10.0 | 0.20 | 2.37 | 0.00 | 74 | 1010.3 |
| 20260507092440 | 83 | 68 | 3.0 | 10.0 | 0.20 | 2.37 | 0.00 | 74 | 1010.3 |
| 20260507092018 | 83 | 252 | 7.0 | 10.0 | 0.22 | 2.36 | 0.00 | 72 | 1010.2 |
| 20260507091930 | 84 | 237 | 7.0 | 10.0 | 0.22 | 2.36 | 0.00 | 72 | 1010.2 |
| 20260507091420 | 84 | 253 | 2.0 | 11.0 | 0.22 | 2.33 | 0.00 | 74 | 1010.2 |
| 20260507091018 | 83 | 236 | 6.0 | 10.0 | 0.21 | 2.29 | 0.00 | 73 | 1010.2 |
| 20260507090910 | 83 | 227 | 5.0 | 8.0 | 0.21 | 2.29 | 0.00 | 74 | 1010.3 |
| 20260507090519 | 82 | 279 | 3.0 | 13.0 | 0.25 | 2.30 | 0.00 | 75 | 1010.2 |
| 20260507090400 | 82 | 181 | 7.0 | 15.0 | 0.27 | 2.30 | 0.00 | 74 | 1010.3 |
| 20260507090019 | 82 | 225 | 6.0 | 15.0 | 0.27 | 2.29 | 0.00 | 73 | 1010.3 |
| 20260507085850 | 83 | 227 | 6.0 | 13.0 | 0.28 | 2.29 | 0.00 | 73 | 1010.2 |
| 20260507085518 | 82 | 191 | 5.0 | 12.0 | 0.31 | 2.29 | 0.00 | 74 | 1010.2 |
| 20260507085339 | 82 | 297 | 6.0 | 12.0 | 0.33 | 2.27 | 0.00 | 74 | 1010.1 |
| 20260507085018 | 84 | 209 | 8.0 | 12.0 | 0.34 | 2.27 | 0.00 | 72 | 1010.1 |
| 20260507084830 | 84 | 340 | 2.0 | 11.0 | 0.36 | 2.27 | 0.00 | 72 | 1010.2 |
| 20260507084519 | 84 | 236 | 4.0 | 11.0 | 0.37 | 2.26 | 0.00 | 71 | 1010.2 |
| 20260507084319 | 85 | 42 | 5.0 | 11.0 | 0.38 | 2.26 | 0.00 | 72 | 1010.2 |
| 20260507084018 | 84 | 316 | 2.0 | 14.0 | 0.38 | 2.25 | 0.00 | 73 | 1010.1 |
| 20260507083810 | 84 | 39 | 5.0 | 14.0 | 0.38 | 2.24 | 0.00 | 72 | 1010.2 |
| 20260507083519 | 84 | 112 | 2.0 | 8.0 | 0.41 | 2.24 | 0.00 | 72 | 1010.2 |
| 20260507083300 | 84 | 360 | 1.0 | 7.0 | 0.40 | 2.24 | 0.00 | 73 | 1010.2 |
| 20260507083019 | 83 | 252 | 3.0 | 9.0 | 0.38 | 2.23 | 0.00 | 73 | 1010.2 |
| 20260507082749 | 83 | 358 | 3.0 | 9.0 | 0.42 | 2.24 | 0.00 | 72 | 1010.2 |
| 20260507082518 | 84 | 34 | 3.0 | 8.0 | 0.42 | 2.22 | 0.00 | 72 | 1010.2 |
| 20260507082240 | 84 | 237 | 2.0 | 10.0 | 0.43 | 2.22 | 0.00 | 72 | 1010.2 |
| 20260507082019 | 84 | 246 | 4.0 | 10.0 | 0.44 | 2.19 | 0.00 | 72 | 1010.2 |
| 20260507081729 | 84 | 262 | 3.0 | 10.0 | 0.47 | 2.18 | 0.00 | 73 | 1010.2 |
| 20260507081518 | 83 | 54 | 2.0 | 10.0 | 0.50 | 2.17 | 0.00 | 73 | 1010.3 |
| 20260507081219 | 83 | 192 | 1.0 | 9.0 | 0.49 | 2.14 | 0.00 | 74 | 1010.3 |
| 20260507081018 | 82 | 155 | 4.0 | 11.0 | 0.49 | 2.13 | 0.00 | 74 | 1010.3 |
| 20260507080709 | 82 | 52 | 6.0 | 13.0 | 0.47 | 2.12 | 0.00 | 74 | 1010.4 |
| 20260507080518 | 82 | 22 | 3.0 | 13.0 | 0.48 | 2.11 | 0.00 | 74 | 1010.4 |
| 20260507080018 | 83 | 37 | 7.0 | 13.0 | 0.50 | 2.10 | 0.00 | 74 | 1010.5 |
| 20260507075650 | 83 | 37 | 8.0 | 12.0 | 0.53 | 2.06 | 0.00 | 72 | 1010.6 |
| 20260507075518 | 84 | 25 | 8.0 | 12.0 | 0.56 | 2.06 | 0.00 | 72 | 1010.7 |
| 20260507075139 | 84 | 237 | 2.0 | 8.0 | 0.56 | 2.05 | 0.00 | 73 | 1010.6 |
| 20260507075018 | 84 | 66 | 2.0 | 8.0 | 0.55 | 2.04 | 0.00 | 73 | 1010.6 |
| 20260507074630 | 84 | 168 | 4.0 | 12.0 | 0.55 | 2.00 | 0.00 | 72 | 1010.8 |
| 20260507074518 | 84 | 248 | 6.0 | 12.0 | 0.54 | 1.99 | 0.00 | 72 | 1010.7 |
| 20260507074119 | 84 | 17 | 6.0 | 13.0 | 0.53 | 1.97 | 0.00 | 71 | 1010.7 |
| 20260507074018 | 85 | 37 | 6.0 | 13.0 | 0.54 | 1.98 | 0.00 | 70 | 1010.8 |
| 20260507073609 | 86 | 222 | 2.0 | 6.0 | 0.53 | 1.96 | 0.00 | 71 | 1010.8 |
| 20260507073518 | 85 | 277 | 2.0 | 6.0 | 0.51 | 1.94 | 0.00 | 71 | 1010.8 |
| 20260507073017 | 85 | 24 | 3.0 | 10.0 | 0.55 | 1.93 | 0.00 | 71 | 1010.7 |
| 20260507072549 | 85 | 336 | 5.0 | 11.0 | 0.53 | 1.87 | 0.00 | 70 | 1010.8 |
| 20260507072518 | 85 | 248 | 6.0 | 11.0 | 0.53 | 1.87 | 0.00 | 70 | 1010.9 |
| 20260507072040 | 85 | 186 | 6.0 | 11.0 | 0.53 | 1.81 | 0.00 | 71 | 1010.9 |
| 20260507072017 | 85 | 13 | 5.0 | 11.0 | 0.53 | 1.81 | 0.00 | 71 | 1010.9 |
| 20260507071529 | 84 | 340 | 2.0 | 13.0 | 0.48 | 1.74 | 0.00 | 72 | 1011.0 |
| 20260507071518 | 84 | 307 | 2.0 | 13.0 | 0.48 | 1.74 | 0.00 | 72 | 1011.0 |
| 20260507071020 | 83 | 266 | 5.0 | 17.0 | 0.50 | 1.72 | 0.00 | 75 | 1011.0 |
| 20260507071018 | 83 | 270 | 5.0 | 17.0 | 0.50 | 1.72 | 0.00 | 75 | 1011.0 |
| 20260507070517 | 82 | 277 | 6.0 | 15.0 | 0.50 | 1.68 | 0.00 | 76 | 1011.0 |
| 20260507070509 | 82 | 298 | 6.0 | 15.0 | 0.50 | 1.68 | 0.00 | 76 | 1011.1 |
| 20260507070018 | 82 | 192 | 12.0 | 20.0 | 0.51 | 1.64 | 0.00 | 73 | 1011.1 |
| 20260507065959 | 82 | 208 | 13.0 | 20.0 | 0.51 | 1.64 | 0.00 | 73 | 1011.1 |
| 20260507065517 | 83 | 275 | 6.0 | 14.0 | 0.43 | 1.53 | 0.00 | 73 | 1011.2 |
| 20260507065448 | 83 | 257 | 6.0 | 14.0 | 0.43 | 1.53 | 0.00 | 73 | 1011.2 |
| 20260507065017 | 83 | 262 | 4.0 | 18.0 | 0.46 | 1.51 | 0.00 | 73 | 1011.2 |
| 20260507064939 | 83 | 231 | 3.0 | 18.0 | 0.44 | 1.48 | 0.00 | 73 | 1011.2 |
| 20260507064517 | 85 | 238 | 6.0 | 12.0 | 0.47 | 1.47 | 0.00 | 71 | 1011.2 |
| 20260507064429 | 85 | 249 | 7.0 | 12.0 | 0.46 | 1.46 | 0.00 | 71 | 1011.3 |
| 20260507064017 | 84 | 275 | 5.0 | 14.0 | 0.46 | 1.47 | 0.00 | 72 | 1011.2 |
| 20260507063918 | 84 | 267 | 8.0 | 14.0 | 0.44 | 1.46 | 0.00 | 71 | 1011.2 |
| 20260507063517 | 85 | 298 | 7.0 | 13.0 | 0.47 | 1.46 | 0.00 | 71 | 1011.4 |
| 20260507063409 | 85 | 270 | 6.0 | 13.0 | 0.46 | 1.45 | 0.00 | 72 | 1011.3 |
| 20260507063018 | 84 | 256 | 6.0 | 12.0 | 0.46 | 1.41 | 0.00 | 73 | 1011.3 |
| 20260507062859 | 83 | 250 | 6.0 | 11.0 | 0.43 | 1.38 | 0.00 | 72 | 1011.4 |
| 20260507062517 | 84 | 231 | 6.0 | 16.0 | 0.44 | 1.38 | 0.00 | 73 | 1011.4 |
| 20260507062349 | 83 | 252 | 5.0 | 18.0 | 0.44 | 1.35 | 0.00 | 74 | 1011.4 |
| 20260507062017 | 82 | 251 | 11.0 | 18.0 | 0.43 | 1.32 | 0.00 | 73 | 1011.5 |
| 20260507061839 | 83 | 212 | 9.0 | 18.0 | 0.43 | 1.32 | 0.00 | 73 | 1011.5 |
| 20260507061517 | 83 | 272 | 6.0 | 16.0 | 0.40 | 1.28 | 0.00 | 73 | 1011.6 |
| 20260507061328 | 83 | 201 | 8.0 | 16.0 | 0.38 | 1.27 | 0.00 | 72 | 1011.6 |
| 20260507061017 | 82 | 191 | 4.0 | 15.0 | 0.35 | 1.24 | 0.00 | 75 | 1011.7 |
| 20260507060819 | 82 | 247 | 6.0 | 15.0 | 0.36 | 1.24 | 0.00 | 74 | 1011.7 |
| 20260507060517 | 82 | 255 | 6.0 | 14.0 | 0.35 | 1.20 | 0.00 | 75 | 1011.7 |
| 20260507060308 | 82 | 21 | 9.0 | 15.0 | 0.34 | 1.16 | 0.00 | 74 | 1011.7 |
| 20260507060017 | 82 | 139 | 6.0 | 15.0 | 0.33 | 1.14 | 0.00 | 74 | 1011.7 |
| 20260507055759 | 82 | 257 | 6.0 | 14.0 | 0.31 | 1.13 | 0.00 | 74 | 1011.7 |
| 20260507055518 | 82 | 240 | 9.0 | 14.0 | 0.31 | 1.12 | 0.00 | 74 | 1011.8 |
| 20260507055248 | 82 | 240 | 5.0 | 12.0 | 0.30 | 1.09 | 0.00 | 74 | 1011.8 |
| 20260507055017 | 82 | 150 | 8.0 | 14.0 | 0.28 | 1.08 | 0.00 | 74 | 1011.8 |
| 20260507054738 | 82 | 242 | 7.0 | 14.0 | 0.25 | 1.06 | 0.00 | 73 | 1011.8 |
| 20260507054516 | 82 | 241 | 8.0 | 13.0 | 0.25 | 1.03 | 0.00 | 73 | 1011.8 |
| 20260507054228 | 83 | 221 | 8.0 | 13.0 | 0.25 | 1.02 | 0.00 | 73 | 1011.8 |
| 20260507054017 | 83 | 241 | 3.0 | 14.0 | 0.28 | 1.02 | 0.00 | 74 | 1011.8 |
| 20260507053718 | 83 | 186 | 9.0 | 14.0 | 0.29 | 1.02 | 0.00 | 73 | 1011.8 |
| 20260507053517 | 83 | 184 | 6.0 | 11.0 | 0.29 | 1.02 | 0.00 | 71 | 1011.9 |
| 20260507053208 | 84 | 294 | 6.0 | 11.0 | 0.27 | 1.00 | 0.00 | 70 | 1011.9 |
| 20260507053017 | 85 | 60 | 2.0 | 11.0 | 0.25 | 0.99 | 0.00 | 71 | 1011.8 |
| 20260507052658 | 85 | 223 | 4.0 | 10.0 | 0.24 | 0.98 | 0.00 | 71 | 1011.9 |
| 20260507052517 | 84 | 10 | 4.0 | 11.0 | 0.23 | 0.96 | 0.00 | 72 | 1011.9 |
| 20260507052148 | 84 | 216 | 6.0 | 11.0 | 0.20 | 0.92 | 0.00 | 71 | 1011.9 |
| 20260507052017 | 85 | 248 | 5.0 | 10.0 | 0.20 | 0.92 | 0.00 | 70 | 1011.9 |
| 20260507051638 | 84 | 193 | 3.0 | 10.0 | 0.20 | 0.92 | 0.00 | 71 | 1011.9 |
| 20260507051517 | 84 | 320 | 2.0 | 11.0 | 0.20 | 0.93 | 0.00 | 72 | 1011.9 |
| 20260507051128 | 83 | 286 | 3.0 | 13.0 | 0.22 | 0.93 | 0.00 | 73 | 1012.0 |
| 20260507051016 | 83 | 66 | 2.0 | 13.0 | 0.22 | 0.93 | 0.00 | 73 | 1012.0 |
| 20260507050618 | 83 | 207 | 8.0 | 12.0 | 0.20 | 0.89 | 0.00 | 72 | 1012.1 |
| 20260507050517 | 83 | 78 | 4.0 | 12.0 | 0.20 | 0.89 | 0.00 | 73 | 1012.1 |
| 20260507050108 | 83 | 208 | 4.0 | 13.0 | 0.18 | 0.86 | 0.00 | 74 | 1012.1 |
| 20260507050017 | 83 | 328 | 1.0 | 13.0 | 0.18 | 0.86 | 0.00 | 74 | 1012.2 |
| 20260507045558 | 83 | 250 | 6.0 | 11.0 | 0.17 | 0.85 | 0.00 | 73 | 1012.2 |
| 20260507045517 | 83 | 275 | 7.0 | 12.0 | 0.17 | 0.85 | 0.00 | 73 | 1012.1 |
| 20260507045048 | 82 | 247 | 5.0 | 16.0 | 0.21 | 0.85 | 0.00 | 74 | 1012.1 |
| 20260507045017 | 82 | 226 | 5.0 | 16.0 | 0.21 | 0.85 | 0.00 | 74 | 1012.2 |
| 20260507044538 | 82 | 229 | 10.0 | 15.0 | 0.18 | 0.83 | 0.00 | 74 | 1012.2 |
| 20260507044516 | 82 | 248 | 10.0 | 15.0 | 0.18 | 0.83 | 0.00 | 74 | 1012.2 |
| 20260507044028 | 81 | 226 | 8.0 | 17.0 | 0.17 | 0.80 | 0.00 | 74 | 1012.2 |
| 20260507044017 | 81 | 206 | 9.0 | 17.0 | 0.17 | 0.80 | 0.00 | 74 | 1012.2 |
| 20260507043518 | 81 | 263 | 7.0 | 16.0 | 0.14 | 0.76 | 0.00 | 74 | 1012.4 |
| 20260507043516 | 81 | 298 | 7.0 | 16.0 | 0.14 | 0.76 | 0.00 | 74 | 1012.4 |
| 20260507043016 | 81 | 294 | 5.0 | 18.0 | 0.14 | 0.76 | 0.00 | 74 | 1012.4 |
| 20260507043008 | 81 | 208 | 6.0 | 18.0 | 0.14 | 0.77 | 0.00 | 74 | 1012.4 |
| 20260507042517 | 82 | 233 | 9.0 | 16.0 | 0.14 | 0.79 | 0.00 | 73 | 1012.4 |
| 20260507042457 | 82 | 291 | 10.0 | 16.0 | 0.14 | 0.79 | 0.00 | 72 | 1012.3 |
| 20260507042016 | 83 | 252 | 6.0 | 11.0 | 0.12 | 0.77 | 0.00 | 72 | 1012.5 |
| 20260507041948 | 83 | 233 | 6.0 | 11.0 | 0.12 | 0.77 | 0.00 | 72 | 1012.5 |
| 20260507041517 | 83 | 265 | 5.0 | 17.0 | 0.14 | 0.77 | 0.00 | 73 | 1012.4 |
| 20260507041438 | 83 | 311 | 3.0 | 17.0 | 0.14 | 0.77 | 0.00 | 73 | 1012.5 |
| 20260507041015 | 83 | 248 | 6.0 | 11.0 | 0.11 | 0.75 | 0.00 | 72 | 1012.5 |
| 20260507040927 | 84 | 232 | 3.0 | 9.0 | 0.11 | 0.75 | 0.00 | 73 | 1012.6 |
| 20260507040516 | 82 | 317 | 3.0 | 12.0 | 0.10 | 0.74 | 0.00 | 73 | 1012.6 |
| 20260507040418 | 82 | 260 | 6.0 | 12.0 | 0.11 | 0.74 | 0.00 | 73 | 1012.6 |
| 20260507040016 | 82 | 200 | 7.0 | 16.0 | 0.14 | 0.72 | 0.00 | 74 | 1012.8 |
| 20260507035907 | 82 | 236 | 9.0 | 16.0 | 0.14 | 0.72 | 0.00 | 73 | 1012.7 |
| 20260507035516 | 82 | 164 | 7.0 | 16.0 | 0.14 | 0.72 | 0.00 | 73 | 1012.8 |
| 20260507035358 | 82 | 262 | 7.0 | 16.0 | 0.12 | 0.70 | 0.00 | 72 | 1012.8 |
| 20260507035016 | 83 | 242 | 5.0 | 11.0 | 0.10 | 0.67 | 0.00 | 72 | 1012.8 |
| 20260507034847 | 84 | 231 | 6.0 | 11.0 | 0.10 | 0.67 | 0.00 | 71 | 1012.9 |
| 20260507034516 | 85 | 227 | 5.0 | 9.0 | 0.14 | 0.67 | 0.00 | 71 | 1012.9 |
| 20260507034337 | 85 | 285 | 3.0 | 15.0 | 0.12 | 0.66 | 0.00 | 71 | 1012.9 |
| 20260507034016 | 85 | 56 | 4.0 | 15.0 | 0.11 | 0.64 | 0.00 | 71 | 1013.0 |
| 20260507033828 | 85 | 355 | 6.0 | 11.0 | 0.11 | 0.64 | 0.00 | 72 | 1013.0 |
| 20260507033516 | 85 | 252 | 6.0 | 10.0 | 0.11 | 0.64 | 0.00 | 70 | 1013.1 |
| 20260507033317 | 85 | 224 | 6.0 | 8.0 | 0.11 | 0.64 | 0.00 | 71 | 1013.1 |
| 20260507033016 | 85 | 321 | 2.0 | 10.0 | 0.12 | 0.64 | 0.00 | 71 | 1013.1 |
| 20260507032807 | 85 | 172 | 3.0 | 10.0 | 0.12 | 0.64 | 0.00 | 71 | 1013.2 |
| 20260507032516 | 85 | 44 | 1.0 | 10.0 | 0.12 | 0.64 | 0.00 | 71 | 1013.2 |
| 20260507032257 | 85 | 246 | 4.0 | 15.0 | 0.12 | 0.64 | 0.00 | 72 | 1013.2 |
| 20260507032016 | 84 | 54 | 3.0 | 15.0 | 0.12 | 0.64 | 0.00 | 72 | 1013.2 |
| 20260507031747 | 83 | 36 | 3.0 | 11.0 | 0.14 | 0.63 | 0.00 | 72 | 1013.2 |
| 20260507031517 | 83 | 137 | 2.0 | 10.0 | 0.14 | 0.63 | 0.00 | 73 | 1013.2 |
| 20260507031237 | 82 | 290 | 5.0 | 14.0 | 0.14 | 0.63 | 0.00 | 73 | 1013.3 |
| 20260507031016 | 83 | 241 | 10.0 | 14.0 | 0.14 | 0.63 | 0.00 | 72 | 1013.3 |
| 20260507030727 | 83 | 214 | 10.0 | 14.0 | 0.14 | 0.63 | 0.00 | 71 | 1013.3 |
| 20260507030516 | 84 | 225 | 3.0 | 8.0 | 0.14 | 0.63 | 0.00 | 72 | 1013.3 |
| 20260507030218 | 84 | 244 | 5.0 | 10.0 | 0.09 | 0.59 | 0.00 | 72 | 1013.4 |
| 20260507030015 | 83 | 333 | 3.0 | 15.0 | 0.08 | 0.57 | 0.00 | 73 | 1013.4 |
| 20260507025707 | 83 | 64 | 6.0 | 11.0 | 0.09 | 0.57 | 0.00 | 73 | 1013.4 |
| 20260507025516 | 82 | 271 | 5.0 | 13.0 | 0.09 | 0.57 | 0.00 | 73 | 1013.4 |
| 20260507025157 | 83 | 250 | 4.0 | 13.0 | 0.09 | 0.56 | 0.00 | 72 | 1013.4 |
| 20260507025016 | 83 | 225 | 6.0 | 16.0 | 0.09 | 0.56 | 0.00 | 73 | 1013.5 |
| 20260507024647 | 82 | 291 | 7.0 | 17.0 | 0.07 | 0.53 | 0.00 | 73 | 1013.5 |
| 20260507024515 | 83 | 360 | 8.0 | 17.0 | 0.07 | 0.53 | 0.00 | 72 | 1013.4 |
| 20260507024137 | 83 | 327 | 4.0 | 13.0 | 0.10 | 0.53 | 0.00 | 72 | 1013.3 |
| 20260507024016 | 83 | 34 | 3.0 | 13.0 | 0.10 | 0.53 | 0.00 | 72 | 1013.4 |
| 20260507023627 | 84 | 15 | 4.0 | 11.0 | 0.10 | 0.53 | 0.00 | 73 | 1013.4 |
| 20260507023515 | 83 | 280 | 4.0 | 11.0 | 0.11 | 0.53 | 0.00 | 72 | 1013.4 |
| 20260507023117 | 83 | 335 | 6.0 | 11.0 | 0.12 | 0.51 | 0.00 | 72 | 1013.5 |
| 20260507023016 | 83 | 359 | 5.0 | 11.0 | 0.12 | 0.51 | 0.00 | 72 | 1013.5 |
| 20260507022606 | 83 | 298 | 6.0 | 11.0 | 0.14 | 0.51 | 0.00 | 72 | 1013.6 |
| 20260507022515 | 83 | 339 | 5.0 | 11.0 | 0.14 | 0.51 | 0.00 | 72 | 1013.6 |
| 20260507022016 | 82 | 284 | 5.0 | 10.0 | 0.12 | 0.50 | 0.00 | 74 | 1013.5 |
| 20260507021546 | 82 | 253 | 7.0 | 12.0 | 0.12 | 0.49 | 0.00 | 74 | 1013.6 |
| 20260507021515 | 82 | 295 | 5.0 | 12.0 | 0.12 | 0.49 | 0.00 | 74 | 1013.5 |
| 20260507021037 | 82 | 264 | 8.0 | 14.0 | 0.12 | 0.49 | 0.00 | 73 | 1013.6 |
| 20260507021016 | 82 | 296 | 7.0 | 14.0 | 0.12 | 0.49 | 0.00 | 73 | 1013.6 |
| 20260507020526 | 82 | 199 | 5.0 | 11.0 | 0.14 | 0.49 | 0.00 | 75 | 1013.6 |
| 20260507020516 | 82 | 303 | 5.0 | 11.0 | 0.14 | 0.49 | 0.00 | 75 | 1013.6 |
| 20260507020015 | 81 | 248 | 7.0 | 15.0 | 0.15 | 0.49 | 0.00 | 74 | 1013.5 |
| 20260507015516 | 82 | 279 | 3.0 | 9.0 | 0.14 | 0.48 | 0.00 | 76 | 1013.5 |
| 20260507015506 | 82 | 322 | 3.0 | 9.0 | 0.14 | 0.48 | 0.00 | 76 | 1013.5 |
| 20260507015015 | 81 | 177 | 1.0 | 10.0 | 0.12 | 0.47 | 0.00 | 76 | 1013.5 |
| 20260507014956 | 81 | 239 | 1.0 | 10.0 | 0.12 | 0.47 | 0.00 | 76 | 1013.5 |
| 20260507014515 | 81 | 42 | 3.0 | 9.0 | 0.11 | 0.46 | 0.00 | 76 | 1013.6 |
| 20260507014447 | 81 | 23 | 4.0 | 9.0 | 0.11 | 0.46 | 0.00 | 77 | 1013.6 |
| 20260507013936 | 80 | 239 | 3.0 | 7.0 | 0.10 | 0.42 | 0.00 | 79 | 1013.5 |
| 20260507013515 | 79 | 8 | 3.0 | 7.0 | 0.09 | 0.41 | 0.00 | 80 | 1013.6 |
| 20260507013426 | 79 | 5 | 2.0 | 7.0 | 0.09 | 0.41 | 0.00 | 80 | 1013.6 |
| 20260507013015 | 78 | 283 | 0.0 | 6.0 | 0.07 | 0.38 | 0.00 | 81 | 1013.6 |
| 20260507012916 | 78 | 336 | 2.0 | 6.0 | 0.07 | 0.38 | 0.00 | 81 | 1013.6 |
| 20260507012515 | 78 | 44 | 1.0 | 4.0 | 0.05 | 0.37 | 0.00 | 81 | 1013.6 |
| 20260507012406 | 78 | 36 | 2.0 | 8.0 | 0.05 | 0.37 | 0.00 | 81 | 1013.6 |
| 20260507012015 | 78 | 12 | 3.0 | 10.0 | 0.05 | 0.37 | 0.00 | 81 | 1013.5 |
| 20260507011857 | 78 | 119 | 5.0 | 11.0 | 0.05 | 0.37 | 0.00 | 81 | 1013.5 |
| 20260507011515 | 78 | 51 | 6.0 | 11.0 | 0.05 | 0.36 | 0.00 | 81 | 1013.5 |
| 20260507011346 | 78 | 104 | 3.0 | 8.0 | 0.05 | 0.36 | 0.00 | 82 | 1013.5 |
| 20260507010836 | 77 | 239 | 2.0 | 13.0 | 0.05 | 0.36 | 0.00 | 82 | 1013.5 |
| 20260507010514 | 77 | 62 | 4.0 | 13.0 | 0.04 | 0.35 | 0.00 | 81 | 1013.5 |
| 20260507010015 | 77 | 56 | 6.0 | 10.0 | 0.03 | 0.34 | 0.00 | 81 | 1013.5 |
| 20260507005816 | 77 | 16 | 3.0 | 5.0 | 0.03 | 0.34 | 0.00 | 82 | 1013.4 |
| 20260507005515 | 77 | 96 | 2.0 | 10.0 | 0.03 | 0.34 | 0.00 | 82 | 1013.4 |
| 20260507005015 | 77 | 30 | 3.0 | 8.0 | 0.04 | 0.34 | 0.00 | 83 | 1013.4 |
| 20260507004755 | 77 | 252 | 1.0 | 8.0 | 0.04 | 0.34 | 0.00 | 83 | 1013.4 |
| 20260507004514 | 77 | 359 | 5.0 | 9.0 | 0.04 | 0.34 | 0.00 | 83 | 1013.4 |
| 20260507004246 | 77 | 47 | 3.0 | 9.0 | 0.03 | 0.33 | 0.00 | 83 | 1013.5 |
| 20260507004015 | 77 | 191 | 1.0 | 8.0 | 0.02 | 0.31 | 0.00 | 83 | 1013.5 |
| 20260507003736 | 77 | 8 | 4.0 | 8.0 | 0.02 | 0.31 | 0.00 | 83 | 1013.5 |
| 20260507003515 | 77 | 57 | 3.0 | 6.0 | 0.02 | 0.31 | 0.00 | 83 | 1013.5 |
| 20260507003226 | 76 | 268 | 1.0 | 14.0 | 0.02 | 0.31 | 0.00 | 83 | 1013.5 |
| 20260507003014 | 76 | 155 | 8.0 | 14.0 | 0.02 | 0.31 | 0.00 | 83 | 1013.6 |
| 20260507002715 | 77 | 209 | 1.0 | 9.0 | 0.02 | 0.31 | 0.00 | 83 | 1013.5 |
| 20260507002514 | 77 | 60 | 4.0 | 10.0 | 0.02 | 0.31 | 0.00 | 83 | 1013.5 |
| 20260507002206 | 76 | 10 | 4.0 | 10.0 | 0.02 | 0.31 | 0.00 | 83 | 1013.5 |
| 20260507002014 | 77 | 242 | 4.0 | 11.0 | 0.02 | 0.31 | 0.00 | 83 | 1013.5 |
| 20260507001656 | 76 | 54 | 2.0 | 10.0 | 0.02 | 0.31 | 0.00 | 83 | 1013.4 |
| 20260507001515 | 76 | 74 | 4.0 | 8.0 | 0.01 | 0.30 | 0.00 | 83 | 1013.4 |
| 20260507001145 | 77 | 47 | 1.0 | 9.0 | 0.01 | 0.30 | 0.00 | 83 | 1013.5 |
| 20260507001014 | 76 | 301 | 1.0 | 9.0 | 0.01 | 0.30 | 0.00 | 83 | 1013.4 |
| 20260507000636 | 77 | 41 | 1.0 | 8.0 | 0.01 | 0.30 | 0.00 | 83 | 1013.4 |
| 20260507000514 | 77 | 320 | 3.0 | 8.0 | 0.01 | 0.30 | 0.00 | 83 | 1013.4 |
| 20260507000126 | 76 | 27 | 1.0 | 9.0 | 0.01 | 0.30 | 0.00 | 83 | 1013.3 |
| 20260507000014 | 76 | 51 | 1.0 | 9.0 | 0.01 | 0.30 | 0.00 | 84 | 1013.3 |
| 20260506235616 | 76 | 27 | 3.0 | 9.0 | 0.01 | 0.30 | 0.00 | 84 | 1013.3 |
| 20260506235514 | 76 | 27 | 2.0 | 9.0 | 0.01 | 0.30 | 0.00 | 84 | 1013.3 |
| 20260506235105 | 76 | 138 | 3.0 | 7.0 | 0.00 | 0.29 | 0.00 | 84 | 1013.3 |
| 20260506235014 | 76 | 4 | 1.0 | 7.0 | 0.00 | 0.29 | 0.00 | 84 | 1013.4 |
| 20260506234555 | 76 | 72 | 1.0 | 11.0 | 0.00 | 0.29 | 0.00 | 84 | 1013.4 |
| 20260506234514 | 76 | 31 | 2.0 | 11.0 | 0.00 | 0.29 | 0.00 | 84 | 1013.4 |
| 20260506234046 | 76 | 22 | 3.0 | 7.0 | 0.00 | 0.29 | 0.00 | 84 | 1013.3 |
| 20260506234015 | 76 | 49 | 2.0 | 7.0 | 0.00 | 0.29 | 0.00 | 84 | 1013.3 |
| 20260506233535 | 76 | 56 | 2.0 | 6.0 | 0.00 | 0.29 | 0.00 | 85 | 1013.3 |
| 20260506233514 | 76 | 73 | 2.0 | 6.0 | 0.00 | 0.29 | 0.00 | 85 | 1013.3 |
| 20260506233025 | 76 | 359 | 0.0 | 7.0 | 0.00 | 0.29 | 0.00 | 85 | 1013.3 |
| 20260506233014 | 76 | 19 | 0.0 | 7.0 | 0.00 | 0.29 | 0.00 | 85 | 1013.2 |
| 20260506232517 | 76 | 47 | 2.0 | 10.0 | 0.00 | 0.29 | 0.00 | 85 | 1013.3 |
| 20260506232514 | 76 | 49 | 2.0 | 10.0 | 0.00 | 0.29 | 0.00 | 85 | 1013.2 |
| 20260506232014 | 75 | 22 | 3.0 | 7.0 | 0.00 | 0.29 | 0.00 | 85 | 1013.2 |
| 20260506231514 | 75 | 29 | 0.0 | 7.0 | 0.00 | 0.29 | 0.00 | 85 | 1013.1 |
| 20260506231455 | 75 | 36 | 0.0 | 7.0 | 0.00 | 0.29 | 0.00 | 85 | 1013.2 |
| 20260506231014 | 75 | 1 | 2.0 | 8.0 | 0.00 | 0.29 | 0.00 | 85 | 1013.1 |
| 20260506230946 | 75 | 5 | 5.0 | 9.0 | 0.00 | 0.29 | 0.00 | 85 | 1013.1 |
| 20260506230514 | 75 | 91 | 5.0 | 10.0 | 0.00 | 0.29 | 0.00 | 85 | 1013.1 |
| 20260506230435 | 75 | 75 | 4.0 | 10.0 | 0.00 | 0.29 | 0.00 | 85 | 1013.1 |
| 20260506230014 | 75 | 14 | 4.0 | 12.0 | 0.00 | 0.29 | 0.00 | 85 | 1013.1 |
| 20260506225925 | 75 | 42 | 4.0 | 12.0 | 0.00 | 0.29 | 0.00 | 85 | 1013.0 |
| 20260506225513 | 75 | 47 | 2.0 | 6.0 | 0.00 | 0.29 | 0.00 | 85 | 1013.0 |
| 20260506225415 | 75 | 279 | 2.0 | 8.0 | 0.00 | 0.29 | 0.00 | 85 | 1013.0 |
| 20260506225014 | 75 | 24 | 3.0 | 10.0 | 0.00 | 0.29 | 0.00 | 85 | 1013.0 |
| 20260506224905 | 75 | 360 | 2.0 | 10.0 | 0.00 | 0.29 | 0.00 | 85 | 1013.0 |
| 20260506224514 | 75 | 78 | 4.0 | 13.0 | 0.00 | 0.29 | 0.00 | 85 | 1013.0 |
| 20260506224355 | 75 | 55 | 2.0 | 13.0 | 0.00 | 0.29 | 0.00 | 85 | 1012.9 |
| 20260506224013 | 75 | 78 | 4.0 | 10.0 | 0.00 | 0.29 | 0.00 | 85 | 1012.9 |
| 20260506223514 | 75 | 22 | 3.0 | 9.0 | 0.00 | 0.29 | 0.00 | 85 | 1013.0 |
| 20260506223335 | 75 | 27 | 2.0 | 10.0 | 0.00 | 0.29 | 0.00 | 85 | 1013.0 |
| 20260506223013 | 75 | 39 | 3.0 | 10.0 | 0.00 | 0.29 | 0.00 | 85 | 1012.9 |
| 20260506222825 | 75 | 72 | 1.0 | 11.0 | 0.00 | 0.29 | 0.00 | 85 | 1012.9 |
| 20260506222514 | 75 | 53 | 3.0 | 11.0 | 0.00 | 0.29 | 0.00 | 85 | 1012.9 |
| 20260506222315 | 75 | 66 | 4.0 | 6.0 | 0.00 | 0.29 | 0.00 | 85 | 1012.9 |
| 20260506222014 | 75 | 294 | 2.0 | 5.0 | 0.00 | 0.29 | 0.00 | 85 | 1012.9 |
| 20260506221804 | 75 | 335 | 1.0 | 6.0 | 0.00 | 0.29 | 0.00 | 85 | 1012.8 |
| 20260506221513 | 75 | 42 | 1.0 | 6.0 | 0.00 | 0.29 | 0.00 | 85 | 1012.8 |
| 20260506221255 | 75 | 36 | 2.0 | 8.0 | 0.00 | 0.29 | 0.00 | 85 | 1012.8 |
| 20260506221014 | 75 | 27 | 3.0 | 8.0 | 0.00 | 0.29 | 0.00 | 85 | 1012.7 |
| 20260506220745 | 75 | 99 | 3.0 | 7.0 | 0.00 | 0.29 | 0.00 | 85 | 1012.7 |
| 20260506220513 | 75 | 55 | 0.0 | 8.0 | 0.00 | 0.29 | 0.00 | 85 | 1012.8 |
| 20260506220013 | 75 | 35 | 1.0 | 10.0 | 0.00 | 0.29 | 0.00 | 85 | 1012.7 |
| 20260506215725 | 75 | 239 | 7.0 | 10.0 | 0.00 | 0.29 | 0.00 | 85 | 1012.6 |
| 20260506215515 | 75 | 269 | 3.0 | 7.0 | 0.00 | 0.29 | 0.00 | 85 | 1012.6 |
| 20260506215214 | 75 | 344 | 1.0 | 8.0 | 0.00 | 0.29 | 0.00 | 85 | 1012.5 |
| 20260506215013 | 75 | 340 | 3.0 | 8.0 | 0.00 | 0.29 | 0.00 | 85 | 1012.5 |
| 20260506214704 | 75 | 100 | 1.0 | 7.0 | 0.00 | 0.29 | 0.00 | 85 | 1012.5 |
| 20260506214513 | 75 | 77 | 1.0 | 6.0 | 0.00 | 0.29 | 0.00 | 85 | 1012.5 |
| 20260506214155 | 75 | 306 | 0.0 | 9.0 | 0.00 | 0.29 | 0.00 | 85 | 1012.4 |
| 20260506214014 | 75 | 34 | 5.0 | 9.0 | 0.00 | 0.29 | 0.00 | 85 | 1012.4 |
| 20260506213644 | 75 | 41 | 6.0 | 9.0 | 0.00 | 0.29 | 0.00 | 85 | 1012.4 |
| 20260506213513 | 75 | 39 | 3.0 | 8.0 | 0.00 | 0.29 | 0.00 | 85 | 1012.3 |
| 20260506213135 | 75 | 71 | 3.0 | 7.0 | 0.00 | 0.29 | 0.00 | 85 | 1012.4 |
| 20260506213013 | 75 | 217 | 1.0 | 6.0 | 0.00 | 0.29 | 0.00 | 85 | 1012.3 |
| 20260506212624 | 75 | 29 | 1.0 | 5.0 | 0.00 | 0.29 | 0.00 | 85 | 1012.3 |
| 20260506212513 | 75 | 30 | 1.0 | 5.0 | 0.00 | 0.29 | 0.00 | 85 | 1012.3 |
| 20260506212115 | 75 | 57 | 1.0 | 3.0 | 0.00 | 0.29 | 0.00 | 85 | 1012.2 |
| 20260506212013 | 75 | 27 | 0.0 | 2.0 | 0.00 | 0.29 | 0.00 | 85 | 1012.3 |
| 20260506211513 | 75 | 190 | 1.0 | 2.0 | 0.00 | 0.29 | 0.00 | 85 | 1012.2 |
| 20260506211054 | 75 | 286 | 0.0 | 4.0 | 0.00 | 0.29 | 0.00 | 85 | 1012.1 |
| 20260506211013 | 75 | 326 | 1.0 | 4.0 | 0.00 | 0.29 | 0.00 | 85 | 1012.1 |
| 20260506210545 | 75 | 245 | 1.0 | 3.0 | 0.00 | 0.29 | 0.00 | 85 | 1012.1 |
| 20260506210034 | 75 | 20 | 0.0 | 4.0 | 0.00 | 0.29 | 0.00 | 85 | 1012.1 |
| 20260506210012 | 75 | 43 | 0.0 | 4.0 | 0.00 | 0.29 | 0.00 | 85 | 1012.0 |
| 20260506205524 | 75 | 116 | 3.0 | 5.0 | 0.00 | 0.29 | 0.00 | 85 | 1011.9 |
| 20260506205513 | 75 | 96 | 2.0 | 5.0 | 0.00 | 0.29 | 0.00 | 85 | 1011.9 |
| 20260506205016 | 75 | 9 | 3.0 | 6.0 | 0.00 | 0.29 | 0.00 | 85 | 1011.9 |
| 20260506205013 | 75 | 357 | 2.0 | 6.0 | 0.00 | 0.29 | 0.00 | 85 | 1012.0 |
| 20260506204512 | 75 | 28 | 1.0 | 8.0 | 0.00 | 0.29 | 0.00 | 85 | 1012.0 |
| 20260506204504 | 75 | 36 | 1.0 | 8.0 | 0.00 | 0.29 | 0.00 | 85 | 1012.0 |
| 20260506204013 | 75 | 30 | 3.0 | 4.0 | 0.00 | 0.29 | 0.00 | 85 | 1012.0 |
| 20260506203954 | 75 | 72 | 2.0 | 4.0 | 0.00 | 0.29 | 0.00 | 85 | 1012.0 |
| 20260506203513 | 75 | 335 | 0.0 | 1.0 | 0.00 | 0.29 | 0.00 | 85 | 1012.0 |
| 20260506203444 | 75 | 352 | 0.0 | 1.0 | 0.00 | 0.29 | 0.00 | 85 | 1012.0 |
| 20260506203013 | 75 | 310 | 0.0 | 1.0 | 0.00 | 0.29 | 0.00 | 85 | 1011.9 |
| 20260506202935 | 75 | 13 | 1.0 | 1.0 | 0.00 | 0.29 | 0.00 | 85 | 1011.9 |
| 20260506202512 | 75 | 356 | 0.0 | 1.0 | 0.00 | 0.29 | 0.00 | 85 | 1012.0 |
| 20260506202424 | 75 | 302 | 0.0 | 1.0 | 0.00 | 0.29 | 0.00 | 85 | 1011.9 |
| 20260506202013 | 75 | 234 | 0.0 | 4.0 | 0.00 | 0.29 | 0.00 | 85 | 1011.9 |
| 20260506201914 | 75 | 360 | 0.0 | 4.0 | 0.00 | 0.29 | 0.00 | 85 | 1011.9 |
| 20260506201513 | 75 | 94 | 1.0 | 4.0 | 0.00 | 0.29 | 0.00 | 85 | 1011.9 |
| 20260506201403 | 75 | 21 | 2.0 | 4.0 | 0.00 | 0.29 | 0.00 | 85 | 1011.9 |
| 20260506201012 | 75 | 32 | 1.0 | 2.0 | 0.00 | 0.29 | 0.00 | 85 | 1011.9 |
| 20260506200854 | 75 | 65 | 0.0 | 2.0 | 0.00 | 0.29 | 0.00 | 85 | 1011.9 |
| 20260506200513 | 75 | 20 | 0.0 | 1.0 | 0.00 | 0.29 | 0.00 | 85 | 1011.8 |
| 20260506200344 | 75 | 20 | 0.0 | 1.0 | 0.00 | 0.29 | 0.00 | 85 | 1011.9 |
| 20260506200012 | 75 | 29 | 0.0 | 5.0 | 0.00 | 0.29 | 0.00 | 85 | 1011.9 |
| 20260506195834 | 75 | 335 | 0.0 | 5.0 | 0.00 | 0.29 | 0.00 | 85 | 1011.9 |
| 20260506195512 | 75 | 336 | 0.0 | 3.0 | 0.00 | 0.29 | 0.00 | 85 | 1011.9 |
| 20260506195324 | 75 | 280 | 1.0 | 4.0 | 0.00 | 0.29 | 0.00 | 85 | 1011.9 |
| 20260506195013 | 75 | 204 | 1.0 | 4.0 | 0.00 | 0.29 | 0.00 | 85 | 1011.8 |
| 20260506194814 | 75 | 55 | 0.0 | 5.0 | 0.00 | 0.29 | 0.00 | 85 | 1011.8 |
| 20260506194512 | 75 | 197 | 1.0 | 5.0 | 0.00 | 0.29 | 0.00 | 85 | 1011.8 |
| 20260506194303 | 75 | 232 | 0.0 | 4.0 | 0.00 | 0.29 | 0.00 | 85 | 1011.8 |
| 20260506194012 | 75 | 306 | 2.0 | 4.0 | 0.00 | 0.29 | 0.00 | 85 | 1011.8 |
| 20260506193754 | 75 | 295 | 0.0 | 3.0 | 0.00 | 0.29 | 0.00 | 85 | 1011.8 |
| 20260506193512 | 75 | 291 | 1.0 | 3.0 | 0.00 | 0.29 | 0.00 | 85 | 1011.8 |
| 20260506193243 | 75 | 311 | 0.0 | 1.0 | 0.00 | 0.29 | 0.00 | 85 | 1011.9 |
| 20260506193012 | 75 | 340 | 0.0 | 2.0 | 0.00 | 0.29 | 0.00 | 85 | 1011.9 |
| 20260506192734 | 75 | 49 | 0.0 | 4.0 | 0.00 | 0.29 | 0.00 | 85 | 1011.9 |
| 20260506192512 | 75 | 293 | 1.0 | 5.0 | 0.00 | 0.29 | 0.00 | 85 | 1012.0 |
| 20260506192224 | 75 | 213 | 1.0 | 5.0 | 0.00 | 0.29 | 0.00 | 85 | 1012.0 |
| 20260506192012 | 75 | 221 | 1.0 | 2.0 | 0.01 | 0.29 | 0.00 | 85 | 1012.0 |
| 20260506191512 | 75 | 210 | 0.0 | 4.0 | 0.01 | 0.29 | 0.00 | 85 | 1012.0 |
| 20260506191204 | 75 | 159 | 1.0 | 3.0 | 0.01 | 0.29 | 0.00 | 85 | 1012.0 |
| 20260506191012 | 75 | 187 | 1.0 | 2.0 | 0.01 | 0.29 | 0.00 | 85 | 1012.0 |
| 20260506190653 | 75 | 266 | 1.0 | 2.0 | 0.01 | 0.29 | 0.00 | 85 | 1012.0 |
| 20260506190512 | 75 | 242 | 1.0 | 2.0 | 0.01 | 0.29 | 0.00 | 85 | 1012.0 |
| 20260506190144 | 75 | 247 | 0.0 | 2.0 | 0.01 | 0.29 | 0.00 | 85 | 1012.0 |
| 20260506190012 | 75 | 262 | 1.0 | 2.0 | 0.01 | 0.29 | 0.00 | 85 | 1012.0 |